sat.trackr.live / text

‹ back to catalog

GSAT0214 (GALILEO 18)

NORAD 41862 · 2016-069D

PAYLOAD ACTIVE UNKNOWN

§ Identity

Operator
Country
ESA
Launch date
2016-11-17
Launch site
FRGUI
Launch vehicle
Mass (kg)
RCS (m²)
8.57

Purposes: earth_obs, nav

External: N2YO · Heavens-Above · Gunter

§ Orbital elements

Epoch: 2026-05-24T15:34:22.779264Z

Period
844.70 min
Inclination
55.4835°
Eccentricity
0.0004639
Mean motion
1.70473997 rev/d
Perigee alt
23,208.5 km
Apogee alt
23,235.9 km
Semi-major
29,600.3 km
B*
0.0000e+0
RAAN
101.7326°
Arg perigee
315.3959°
Mean anomaly
44.5266°
Rev number
5,924

§ Raw data

GSAT0214 (GALILEO 18)1 41862U 16069D   26144.64887476  .00000014  00000+0  00000+0 0  99932 41862  55.4835 101.7326 0004639 315.3959  44.5266  1.70473997 59244

JSON: /api/v1/satellites/41862 · /tle

For live sub-satellite position, see the globe view (requires WebGL).

§ Visibility from observer

Set your observer location to see the next 7 days of passes ≥ 10°. The values pass through the URL so the page stays shareable.

No JS? Fill the form by hand. The geolocation button needs JavaScript.